owner,sensor,date,latitude,longitude,vertical_datum,wind_speed,wind_to_direction,wind_speed_of_gust,qcFlag 
DISL,ioos:station:DISL:CATA:1,2012-08-01T00:00:00Z,30.3085,-88.1395,0.0,7.28,221.1,-9999.0,'1111122,1111122,1111122' 
DISL,ioos:station:DISL:CATA:1,2012-08-01T00:30:00Z,30.3085,-88.1395,0.0,7.32,228.8,-9999.0,'1111122,1111122,1111122' 
DISL,ioos:station:DISL:CATA:1,2012-08-01T01:00:00Z,30.3085,-88.1395,0.0,7.02,233.4,-9999.0,'1111122,1111122,1111122' 
DISL,ioos:station:DISL:CATA:1,2012-08-01T01:30:00Z,30.3085,-88.1395,0.0,6.68,240.7,-9999.0,'1111122,1111122,1111122' 
DISL,ioos:station:DISL:CATA:1,2012-08-01T02:00:00Z,30.3085,-88.1395,0.0,6.23,244.7,-9999.0,'1111122,1111122,1111122' 
DISL,ioos:station:DISL:CATA:1,2012-08-01T02:30:00Z,30.3085,-88.1395,0.0,6.58,249.3,-9999.0,'1111122,1111122,1111122' 
DISL,ioos:station:DISL:CATA:1,2012-08-01T03:00:00Z,30.3085,-88.1395,0.0,7.45,239.2,-9999.0,'1111122,1111122,1111122' 
DISL,ioos:station:DISL:CATA:1,2012-08-01T03:30:00Z,30.3085,-88.1395,0.0,7.24,237.7,-9999.0,'1111122,1111122,1111122' 
DISL,ioos:station:DISL:CATA:1,2012-08-01T04:00:00Z,30.3085,-88.1395,0.0,7.36,230.9,-9999.0,'1111122,1111122,1111122' 
DISL,ioos:station:DISL:CATA:1,2012-08-01T04:30:00Z,30.3085,-88.1395,0.0,8.38,231.7,-9999.0,'1111122,1111122,1111122' 
DISL,ioos:station:DISL:CATA:1,2012-08-01T05:00:00Z,30.3085,-88.1395,0.0,7.52,236.1,-9999.0,'1111122,1111122,1111122' 
DISL,ioos:station:DISL:CATA:1,2012-08-01T05:30:00Z,30.3085,-88.1395,0.0,6.89,236.8,-9999.0,'1111122,1111122,1111122' 
DISL,ioos:station:DISL:CATA:1,2012-08-01T06:00:00Z,30.3085,-88.1395,0.0,5.75,238.1,-9999.0,'1111122,1111122,1111122' 
DISL,ioos:station:DISL:CATA:1,2012-08-01T06:30:00Z,30.3085,-88.1395,0.0,6.85,244.1,-9999.0,'1111122,1111122,1111122' 
DISL,ioos:station:DISL:CATA:1,2012-08-01T07:00:00Z,30.3085,-88.1395,0.0,7.08,240.3,-9999.0,'1111122,1111122,1111122' 
DISL,ioos:station:DISL:CATA:1,2012-08-01T07:30:00Z,30.3085,-88.1395,0.0,7.24,253.2,-9999.0,'1111122,1111122,1111122' 
DISL,ioos:station:DISL:CATA:1,2012-08-01T08:00:00Z,30.3085,-88.1395,0.0,7.04,255.4,-9999.0,'1111122,1111122,1111122' 
DISL,ioos:station:DISL:CATA:1,2012-08-01T08:30:00Z,30.3085,-88.1395,0.0,7.37,251.1,-9999.0,'1111122,1111122,1111122' 
DISL,ioos:station:DISL:CATA:1,2012-08-01T09:00:00Z,30.3085,-88.1395,0.0,7.93,252.0,-9999.0,'1111122,1111122,1111122' 
DISL,ioos:station:DISL:CATA:1,2012-08-01T09:30:00Z,30.3085,-88.1395,0.0,7.73,255.9,-9999.0,'1111122,1111122,1111122' 
DISL,ioos:station:DISL:CATA:1,2012-08-01T10:00:00Z,30.3085,-88.1395,0.0,7.66,271.4,-9999.0,'1111122,1111122,1111122' 
DISL,ioos:station:DISL:CATA:1,2012-08-01T10:30:00Z,30.3085,-88.1395,0.0,7.67,275.6,-9999.0,'1111122,1111122,1111122' 
DISL,ioos:station:DISL:CATA:1,2012-08-01T11:00:00Z,30.3085,-88.1395,0.0,6.68,280.6,-9999.0,'1111122,1111122,1111122' 
DISL,ioos:station:DISL:CATA:1,2012-08-01T11:30:00Z,30.3085,-88.1395,0.0,6.42,293.9,-9999.0,'1111122,1111122,1111122' 
DISL,ioos:station:DISL:CATA:1,2012-08-01T12:00:00Z,30.3085,-88.1395,0.0,4.63,306.5,-9999.0,'1111122,1111122,1111122' 
DISL,ioos:station:DISL:CATA:1,2012-08-01T12:30:00Z,30.3085,-88.1395,0.0,5.94,300.6,-9999.0,'1111122,1111122,1111122' 
DISL,ioos:station:DISL:CATA:1,2012-08-01T13:00:00Z,30.3085,-88.1395,0.0,6.93,312.4,-9999.0,'1111122,1111122,1111122' 
DISL,ioos:station:DISL:CATA:1,2012-08-01T13:30:00Z,30.3085,-88.1395,0.0,5.11,313.7,-9999.0,'1111122,1111122,1111122' 
DISL,ioos:station:DISL:CATA:1,2012-08-01T14:00:00Z,30.3085,-88.1395,0.0,4.83,292.7,-9999.0,'1111122,1111122,1111122' 
DISL,ioos:station:DISL:CATA:1,2012-08-01T14:30:00Z,30.3085,-88.1395,0.0,3.88,279.0,-9999.0,'1111122,1111122,1111122' 
DISL,ioos:station:DISL:CATA:1,2012-08-01T15:00:00Z,30.3085,-88.1395,0.0,4.88,262.6,-9999.0,'1111122,1111122,1111122' 
DISL,ioos:station:DISL:CATA:1,2012-08-01T15:30:00Z,30.3085,-88.1395,0.0,5.93,231.9,-9999.0,'1111122,1111122,1111122' 
DISL,ioos:station:DISL:CATA:1,2012-08-01T16:00:00Z,30.3085,-88.1395,0.0,12.4,214.4,-9999.0,'1111122,1111122,1111122' 
DISL,ioos:station:DISL:CATA:1,2012-08-01T16:30:00Z,30.3085,-88.1395,0.0,11.85,223.6,-9999.0,'1111122,1111122,1111122' 
DISL,ioos:station:DISL:CATA:1,2012-08-01T17:00:00Z,30.3085,-88.1395,0.0,11.29,226.4,-9999.0,'1111122,1111122,1111122' 
DISL,ioos:station:DISL:CATA:1,2012-08-01T17:30:00Z,30.3085,-88.1395,0.0,11.02,230.8,-9999.0,'1111122,1111122,1111122' 
DISL,ioos:station:DISL:CATA:1,2012-08-01T18:00:00Z,30.3085,-88.1395,0.0,9.17,227.2,-9999.0,'1111122,1111122,1111122' 
DISL,ioos:station:DISL:CATA:1,2012-08-01T18:30:00Z,30.3085,-88.1395,0.0,9.35,227.4,-9999.0,'1111122,1111122,1111122' 
DISL,ioos:station:DISL:CATA:1,2012-08-01T19:00:00Z,30.3085,-88.1395,0.0,7.97,236.8,-9999.0,'1111122,1111122,1111122' 
DISL,ioos:station:DISL:CATA:1,2012-08-01T19:30:00Z,30.3085,-88.1395,0.0,7.54,242.6,-9999.0,'1111122,1111122,1111122' 
DISL,ioos:station:DISL:CATA:1,2012-08-01T20:00:00Z,30.3085,-88.1395,0.0,7.31,241.2,-9999.0,'1111122,1111122,1111122' 
DISL,ioos:station:DISL:CATA:1,2012-08-01T20:30:00Z,30.3085,-88.1395,0.0,7.64,257.3,-9999.0,'1111122,1111122,1111122' 
DISL,ioos:station:DISL:CATA:1,2012-08-01T21:00:00Z,30.3085,-88.1395,0.0,7.49,241.5,-9999.0,'1111122,1111122,1111122' 
DISL,ioos:station:DISL:CATA:1,2012-08-01T21:30:00Z,30.3085,-88.1395,0.0,7.74,242.4,-9999.0,'1111122,1111122,1111122' 
DISL,ioos:station:DISL:CATA:1,2012-08-01T22:00:00Z,30.3085,-88.1395,0.0,7.64,244.1,-9999.0,'1111122,1111122,1111122' 
DISL,ioos:station:DISL:CATA:1,2012-08-01T22:30:00Z,30.3085,-88.1395,0.0,8.04,242.7,-9999.0,'1111122,1111122,1111122' 
DISL,ioos:station:DISL:CATA:1,2012-08-01T23:00:00Z,30.3085,-88.1395,0.0,7.53,241.5,-9999.0,'1111122,1111122,1111122' 
DISL,ioos:station:DISL:CATA:1,2012-08-01T23:30:00Z,30.3085,-88.1395,0.0,6.11,254.5,-9999.0,'1111122,1111122,1111122' 
DISL,ioos:station:DISL:CATA:1,2012-08-02T00:00:00Z,30.3085,-88.1395,0.0,5.58,264.8,-9999.0,'1111122,1111122,1111122' 
DISL,ioos:station:DISL:CATA:1,2012-08-02T00:30:00Z,30.3085,-88.1395,0.0,5.2,259.7,-9999.0,'1111122,1111122,1111122' 
DISL,ioos:station:DISL:CATA:1,2012-08-02T01:00:00Z,30.3085,-88.1395,0.0,4.74,256.4,-9999.0,'1111122,1111122,1111122' 
DISL,ioos:station:DISL:CATA:1,2012-08-02T01:30:00Z,30.3085,-88.1395,0.0,5.04,247.2,-9999.0,'1111122,1111122,1111122' 
DISL,ioos:station:DISL:CATA:1,2012-08-02T02:00:00Z,30.3085,-88.1395,0.0,4.09,253.8,-9999.0,'1111122,1111122,1111122' 
DISL,ioos:station:DISL:CATA:1,2012-08-02T02:30:00Z,30.3085,-88.1395,0.0,4.0,249.4,-9999.0,'1111122,1111122,1111122' 
DISL,ioos:station:DISL:CATA:1,2012-08-02T03:00:00Z,30.3085,-88.1395,0.0,4.53,234.7,-9999.0,'1111122,1111122,1111122' 
DISL,ioos:station:DISL:CATA:1,2012-08-02T03:30:00Z,30.3085,-88.1395,0.0,3.93,233.0,-9999.0,'1111122,1111122,1111122' 
DISL,ioos:station:DISL:CATA:1,2012-08-02T04:00:00Z,30.3085,-88.1395,0.0,3.87,241.0,-9999.0,'1111122,1111122,1111122' 
DISL,ioos:station:DISL:CATA:1,2012-08-02T04:30:00Z,30.3085,-88.1395,0.0,5.0,227.1,-9999.0,'1111122,1111122,1111122' 
DISL,ioos:station:DISL:CATA:1,2012-08-02T05:00:00Z,30.3085,-88.1395,0.0,4.87,228.6,-9999.0,'1111122,1111122,1111122' 
DISL,ioos:station:DISL:CATA:1,2012-08-02T05:30:00Z,30.3085,-88.1395,0.0,4.9,242.9,-9999.0,'1111122,1111122,1111122' 
DISL,ioos:station:DISL:CATA:1,2012-08-02T06:00:00Z,30.3085,-88.1395,0.0,4.83,251.3,-9999.0,'1111122,1111122,1111122' 
DISL,ioos:station:DISL:CATA:1,2012-08-02T06:30:00Z,30.3085,-88.1395,0.0,4.32,252.0,-9999.0,'1111122,1111122,1111122' 
DISL,ioos:station:DISL:CATA:1,2012-08-02T07:00:00Z,30.3085,-88.1395,0.0,4.09,239.2,-9999.0,'1111122,1111122,1111122' 
DISL,ioos:station:DISL:CATA:1,2012-08-02T07:30:00Z,30.3085,-88.1395,0.0,3.53,209.1,-9999.0,'1111122,1111122,1111122' 
DISL,ioos:station:DISL:CATA:1,2012-08-02T08:00:00Z,30.3085,-88.1395,0.0,3.7,226.7,-9999.0,'1111122,1111122,1111122' 
DISL,ioos:station:DISL:CATA:1,2012-08-02T08:30:00Z,30.3085,-88.1395,0.0,3.38,242.1,-9999.0,'1111122,1111122,1111122' 
DISL,ioos:station:DISL:CATA:1,2012-08-02T09:00:00Z,30.3085,-88.1395,0.0,4.04,256.4,-9999.0,'1111122,1111122,1111122' 
DISL,ioos:station:DISL:CATA:1,2012-08-02T09:30:00Z,30.3085,-88.1395,0.0,4.62,267.8,-9999.0,'1111122,1111122,1111122' 
DISL,ioos:station:DISL:CATA:1,2012-08-02T10:00:00Z,30.3085,-88.1395,0.0,3.38,327.9,-9999.0,'1111122,1111122,1111122' 
DISL,ioos:station:DISL:CATA:1,2012-08-02T10:30:00Z,30.3085,-88.1395,0.0,3.19,294.6,-9999.0,'1111122,1111122,1111122' 
DISL,ioos:station:DISL:CATA:1,2012-08-02T11:00:00Z,30.3085,-88.1395,0.0,5.4,294.5,-9999.0,'1111122,1111122,1111122' 
DISL,ioos:station:DISL:CATA:1,2012-08-02T11:30:00Z,30.3085,-88.1395,0.0,5.06,298.7,-9999.0,'1111122,1111122,1111122' 
DISL,ioos:station:DISL:CATA:1,2012-08-02T12:00:00Z,30.3085,-88.1395,0.0,5.45,296.8,-9999.0,'1111122,1111122,1111122' 
DISL,ioos:station:DISL:CATA:1,2012-08-02T12:30:00Z,30.3085,-88.1395,0.0,5.46,294.9,-9999.0,'1111122,1111122,1111122' 
DISL,ioos:station:DISL:CATA:1,2012-08-02T13:00:00Z,30.3085,-88.1395,0.0,5.68,303.3,-9999.0,'1111122,1111122,1111122' 
DISL,ioos:station:DISL:CATA:1,2012-08-02T13:30:00Z,30.3085,-88.1395,0.0,5.6,292.0,-9999.0,'1111122,1111122,1111122' 
DISL,ioos:station:DISL:CATA:1,2012-08-02T14:00:00Z,30.3085,-88.1395,0.0,6.06,285.5,-9999.0,'1111122,1111122,1111122' 
DISL,ioos:station:DISL:CATA:1,2012-08-02T14:30:00Z,30.3085,-88.1395,0.0,6.32,286.1,-9999.0,'1111122,1111122,1111122' 
DISL,ioos:station:DISL:CATA:1,2012-08-02T15:00:00Z,30.3085,-88.1395,0.0,6.33,281.3,-9999.0,'1111122,1111122,1111122' 
DISL,ioos:station:DISL:CATA:1,2012-08-02T15:30:00Z,30.3085,-88.1395,0.0,5.78,278.8,-9999.0,'1111122,1111122,1111122' 
DISL,ioos:station:DISL:CATA:1,2012-08-02T16:00:00Z,30.3085,-88.1395,0.0,5.32,275.6,-9999.0,'1111122,1111122,1111122' 
DISL,ioos:station:DISL:CATA:1,2012-08-02T16:30:00Z,30.3085,-88.1395,0.0,4.45,268.3,-9999.0,'1111122,1111122,1111122' 
DISL,ioos:station:DISL:CATA:1,2012-08-02T17:00:00Z,30.3085,-88.1395,0.0,4.85,263.3,-9999.0,'1111122,1111122,1111122' 
DISL,ioos:station:DISL:CATA:1,2012-08-02T17:30:00Z,30.3085,-88.1395,0.0,5.34,262.3,-9999.0,'1111122,1111122,1111122' 
DISL,ioos:station:DISL:CATA:1,2012-08-02T18:00:00Z,30.3085,-88.1395,0.0,5.6,248.6,-9999.0,'1111122,1111122,1111122' 
DISL,ioos:station:DISL:CATA:1,2012-08-02T18:30:00Z,30.3085,-88.1395,0.0,5.73,256.6,-9999.0,'1111122,1111122,1111122' 
DISL,ioos:station:DISL:CATA:1,2012-08-02T19:00:00Z,30.3085,-88.1395,0.0,5.12,256.3,-9999.0,'1111122,1111122,1111122' 
DISL,ioos:station:DISL:CATA:1,2012-08-02T19:30:00Z,30.3085,-88.1395,0.0,3.28,293.1,-9999.0,'1111122,1111122,1111122' 
DISL,ioos:station:DISL:CATA:1,2012-08-02T20:00:00Z,30.3085,-88.1395,0.0,4.35,74.0,-9999.0,'1111122,1111122,1111122' 
DISL,ioos:station:DISL:CATA:1,2012-08-02T20:30:00Z,30.3085,-88.1395,0.0,7.21,92.0,-9999.0,'1111122,1111122,1111122' 
DISL,ioos:station:DISL:CATA:1,2012-08-02T21:00:00Z,30.3085,-88.1395,0.0,4.19,92.3,-9999.0,'1111122,1111122,1111122' 
DISL,ioos:station:DISL:CATA:1,2012-08-02T21:30:00Z,30.3085,-88.1395,0.0,3.56,96.2,-9999.0,'1111122,1111122,1111122' 
DISL,ioos:station:DISL:CATA:1,2012-08-02T22:00:00Z,30.3085,-88.1395,0.0,0.68,49.37,-9999.0,'1111122,1111122,1111122' 
DISL,ioos:station:DISL:CATA:1,2012-08-02T22:30:00Z,30.3085,-88.1395,0.0,5.25,311.8,-9999.0,'1111122,1111122,1111122' 
DISL,ioos:station:DISL:CATA:1,2012-08-02T23:00:00Z,30.3085,-88.1395,0.0,2.26,295.2,-9999.0,'1111122,1111122,1111122' 
DISL,ioos:station:DISL:CATA:1,2012-08-02T23:30:00Z,30.3085,-88.1395,0.0,3.29,351.0,-9999.0,'1111122,1111122,1111122' 
DISL,ioos:station:DISL:CATA:1,2012-08-03T00:00:00Z,30.3085,-88.1395,0.0,1.48,357.6,-9999.0,'1111122,1111122,1111122' 
DISL,ioos:station:DISL:CATA:1,2012-08-03T00:30:00Z,30.3085,-88.1395,0.0,2.08,1.589,-9999.0,'1111122,1111122,1111122' 
DISL,ioos:station:DISL:CATA:1,2012-08-03T01:00:00Z,30.3085,-88.1395,0.0,1.44,49.65,-9999.0,'1111122,1111122,1111122' 
DISL,ioos:station:DISL:CATA:1,2012-08-03T01:30:00Z,30.3085,-88.1395,0.0,2.38,103.7,-9999.0,'1111122,1111122,1111122' 
DISL,ioos:station:DISL:CATA:1,2012-08-03T02:00:00Z,30.3085,-88.1395,0.0,2.42,126.2,-9999.0,'1111122,1111122,1111122' 
DISL,ioos:station:DISL:CATA:1,2012-08-03T02:30:00Z,30.3085,-88.1395,0.0,2.36,153.5,-9999.0,'1111122,1111122,1111122' 
DISL,ioos:station:DISL:CATA:1,2012-08-03T03:00:00Z,30.3085,-88.1395,0.0,3.22,131.8,-9999.0,'1111122,1111122,1111122' 
DISL,ioos:station:DISL:CATA:1,2012-08-03T03:30:00Z,30.3085,-88.1395,0.0,3.41,138.5,-9999.0,'1111122,1111122,1111122' 
DISL,ioos:station:DISL:CATA:1,2012-08-03T04:00:00Z,30.3085,-88.1395,0.0,3.57,153.8,-9999.0,'1111122,1111122,1111122' 
DISL,ioos:station:DISL:CATA:1,2012-08-03T04:30:00Z,30.3085,-88.1395,0.0,3.66,155.4,-9999.0,'1111122,1111122,1111122' 
DISL,ioos:station:DISL:CATA:1,2012-08-03T05:00:00Z,30.3085,-88.1395,0.0,4.14,173.3,-9999.0,'1111122,1111122,1111122' 
DISL,ioos:station:DISL:CATA:1,2012-08-03T05:30:00Z,30.3085,-88.1395,0.0,4.34,164.5,-9999.0,'1111122,1111122,1111122' 
DISL,ioos:station:DISL:CATA:1,2012-08-03T06:00:00Z,30.3085,-88.1395,0.0,5.5,178.6,-9999.0,'1111122,1111122,1111122' 
DISL,ioos:station:DISL:CATA:1,2012-08-03T06:30:00Z,30.3085,-88.1395,0.0,5.63,186.6,-9999.0,'1111122,1111122,1111122' 
DISL,ioos:station:DISL:CATA:1,2012-08-03T07:00:00Z,30.3085,-88.1395,0.0,5.86,197.7,-9999.0,'1111122,1111122,1111122' 
DISL,ioos:station:DISL:CATA:1,2012-08-03T07:30:00Z,30.3085,-88.1395,0.0,5.85,213.1,-9999.0,'1111122,1111122,1111122' 
DISL,ioos:station:DISL:CATA:1,2012-08-03T08:00:00Z,30.3085,-88.1395,0.0,4.97,212.6,-9999.0,'1111122,1111122,1111122' 
DISL,ioos:station:DISL:CATA:1,2012-08-03T08:30:00Z,30.3085,-88.1395,0.0,4.75,206.0,-9999.0,'1111122,1111122,1111122' 
DISL,ioos:station:DISL:CATA:1,2012-08-03T09:00:00Z,30.3085,-88.1395,0.0,5.03,213.6,-9999.0,'1111122,1111122,1111122' 
DISL,ioos:station:DISL:CATA:1,2012-08-03T09:30:00Z,30.3085,-88.1395,0.0,5.39,214.9,-9999.0,'1111122,1111122,1111122' 
DISL,ioos:station:DISL:CATA:1,2012-08-03T10:00:00Z,30.3085,-88.1395,0.0,5.0,212.4,-9999.0,'1111122,1111122,1111122' 
DISL,ioos:station:DISL:CATA:1,2012-08-03T10:30:00Z,30.3085,-88.1395,0.0,4.49,212.2,-9999.0,'1111122,1111122,1111122' 
DISL,ioos:station:DISL:CATA:1,2012-08-03T11:00:00Z,30.3085,-88.1395,0.0,4.51,217.8,-9999.0,'1111122,1111122,1111122' 
DISL,ioos:station:DISL:CATA:1,2012-08-03T11:30:00Z,30.3085,-88.1395,0.0,4.73,219.3,-9999.0,'1111122,1111122,1111122' 
DISL,ioos:station:DISL:CATA:1,2012-08-03T12:00:00Z,30.3085,-88.1395,0.0,4.84,215.2,-9999.0,'1111122,1111122,1111122' 
DISL,ioos:station:DISL:CATA:1,2012-08-03T12:30:00Z,30.3085,-88.1395,0.0,6.63,247.4,-9999.0,'1111122,1111122,1111122' 
DISL,ioos:station:DISL:CATA:1,2012-08-03T13:00:00Z,30.3085,-88.1395,0.0,2.87,297.7,-9999.0,'1111122,1111122,1111122' 
DISL,ioos:station:DISL:CATA:1,2012-08-03T13:30:00Z,30.3085,-88.1395,0.0,0.63,127.4,-9999.0,'1111122,1111122,1111122' 
DISL,ioos:station:DISL:CATA:1,2012-08-03T14:00:00Z,30.3085,-88.1395,0.0,2.27,291.4,-9999.0,'1111122,1111122,1111122' 
DISL,ioos:station:DISL:CATA:1,2012-08-03T14:30:00Z,30.3085,-88.1395,0.0,0.42,232.9,-9999.0,'1111122,1111122,1111122' 
DISL,ioos:station:DISL:CATA:1,2012-08-03T15:00:00Z,30.3085,-88.1395,0.0,1.38,254.8,-9999.0,'1111122,1111122,1111122' 
DISL,ioos:station:DISL:CATA:1,2012-08-03T15:30:00Z,30.3085,-88.1395,0.0,1.67,298.9,-9999.0,'1111122,1111122,1111122' 
DISL,ioos:station:DISL:CATA:1,2012-08-03T16:00:00Z,30.3085,-88.1395,0.0,2.67,301.4,-9999.0,'1111122,1111122,1111122' 
DISL,ioos:station:DISL:CATA:1,2012-08-03T16:30:00Z,30.3085,-88.1395,0.0,2.37,261.7,-9999.0,'1111122,1111122,1111122' 
DISL,ioos:station:DISL:CATA:1,2012-08-03T17:00:00Z,30.3085,-88.1395,0.0,2.57,248.4,-9999.0,'1111122,1111122,1111122' 
DISL,ioos:station:DISL:CATA:1,2012-08-03T17:30:00Z,30.3085,-88.1395,0.0,2.81,236.0,-9999.0,'1111122,1111122,1111122' 
DISL,ioos:station:DISL:CATA:1,2012-08-03T18:00:00Z,30.3085,-88.1395,0.0,2.91,224.3,-9999.0,'1111122,1111122,1111122' 
DISL,ioos:station:DISL:CATA:1,2012-08-03T18:30:00Z,30.3085,-88.1395,0.0,3.7,236.7,-9999.0,'1111122,1111122,1111122' 
DISL,ioos:station:DISL:CATA:1,2012-08-03T19:00:00Z,30.3085,-88.1395,0.0,3.95,228.5,-9999.0,'1111122,1111122,1111122' 
DISL,ioos:station:DISL:CATA:1,2012-08-03T19:30:00Z,30.3085,-88.1395,0.0,4.83,215.7,-9999.0,'1111122,1111122,1111122' 
DISL,ioos:station:DISL:CATA:1,2012-08-03T20:00:00Z,30.3085,-88.1395,0.0,5.26,216.1,-9999.0,'1111122,1111122,1111122' 
DISL,ioos:station:DISL:CATA:1,2012-08-03T20:30:00Z,30.3085,-88.1395,0.0,4.56,217.6,-9999.0,'1111122,1111122,1111122' 
DISL,ioos:station:DISL:CATA:1,2012-08-03T21:00:00Z,30.3085,-88.1395,0.0,4.39,224.1,-9999.0,'1111122,1111122,1111122' 
DISL,ioos:station:DISL:CATA:1,2012-08-03T21:30:00Z,30.3085,-88.1395,0.0,4.06,216.9,-9999.0,'1111122,1111122,1111122' 
DISL,ioos:station:DISL:CATA:1,2012-08-03T22:00:00Z,30.3085,-88.1395,0.0,4.33,202.9,-9999.0,'1111122,1111122,1111122' 
DISL,ioos:station:DISL:CATA:1,2012-08-03T22:30:00Z,30.3085,-88.1395,0.0,3.33,228.4,-9999.0,'1111122,1111122,1111122' 
DISL,ioos:station:DISL:CATA:1,2012-08-03T23:00:00Z,30.3085,-88.1395,0.0,3.09,243.2,-9999.0,'1111122,1111122,1111122' 
DISL,ioos:station:DISL:CATA:1,2012-08-03T23:30:00Z,30.3085,-88.1395,0.0,2.39,275.9,-9999.0,'1111122,1111122,1111122' 
DISL,ioos:station:DISL:CATA:1,2012-08-04T00:00:00Z,30.3085,-88.1395,0.0,2.16,296.6,-9999.0,'1111122,1111122,1111122' 
DISL,ioos:station:DISL:CATA:1,2012-08-04T00:30:00Z,30.3085,-88.1395,0.0,7.06,34.66,-9999.0,'1111122,1111122,1111122' 
DISL,ioos:station:DISL:CATA:1,2012-08-04T01:00:00Z,30.3085,-88.1395,0.0,6.75,42.04,-9999.0,'1111122,1111122,1111122' 
DISL,ioos:station:DISL:CATA:1,2012-08-04T01:30:00Z,30.3085,-88.1395,0.0,4.79,48.77,-9999.0,'1111122,1111122,1111122' 
DISL,ioos:station:DISL:CATA:1,2012-08-04T02:00:00Z,30.3085,-88.1395,0.0,4.48,59.68,-9999.0,'1111122,1111122,1111122' 
DISL,ioos:station:DISL:CATA:1,2012-08-04T02:30:00Z,30.3085,-88.1395,0.0,4.3,112.9,-9999.0,'1111122,1111122,1111122' 
DISL,ioos:station:DISL:CATA:1,2012-08-04T03:00:00Z,30.3085,-88.1395,0.0,3.09,96.2,-9999.0,'1111122,1111122,1111122' 
DISL,ioos:station:DISL:CATA:1,2012-08-04T03:30:00Z,30.3085,-88.1395,0.0,2.45,65.26,-9999.0,'1111122,1111122,1111122' 
DISL,ioos:station:DISL:CATA:1,2012-08-04T04:00:00Z,30.3085,-88.1395,0.0,3.04,64.37,-9999.0,'1111122,1111122,1111122' 
DISL,ioos:station:DISL:CATA:1,2012-08-04T04:30:00Z,30.3085,-88.1395,0.0,3.8,85.7,-9999.0,'1111122,1111122,1111122' 
DISL,ioos:station:DISL:CATA:1,2012-08-04T05:00:00Z,30.3085,-88.1395,0.0,3.79,84.6,-9999.0,'1111122,1111122,1111122' 
DISL,ioos:station:DISL:CATA:1,2012-08-04T05:30:00Z,30.3085,-88.1395,0.0,4.67,113.4,-9999.0,'1111122,1111122,1111122' 
DISL,ioos:station:DISL:CATA:1,2012-08-04T06:00:00Z,30.3085,-88.1395,0.0,5.22,110.8,-9999.0,'1111122,1111122,1111122' 
DISL,ioos:station:DISL:CATA:1,2012-08-04T06:30:00Z,30.3085,-88.1395,0.0,4.26,115.1,-9999.0,'1111122,1111122,1111122' 
DISL,ioos:station:DISL:CATA:1,2012-08-04T07:00:00Z,30.3085,-88.1395,0.0,4.31,131.0,-9999.0,'1111122,1111122,1111122' 
DISL,ioos:station:DISL:CATA:1,2012-08-04T07:30:00Z,30.3085,-88.1395,0.0,4.76,124.9,-9999.0,'1111122,1111122,1111122' 
DISL,ioos:station:DISL:CATA:1,2012-08-04T08:00:00Z,30.3085,-88.1395,0.0,3.23,152.8,-9999.0,'1111122,1111122,1111122' 
DISL,ioos:station:DISL:CATA:1,2012-08-04T08:30:00Z,30.3085,-88.1395,0.0,3.67,174.2,-9999.0,'1111122,1111122,1111122' 
DISL,ioos:station:DISL:CATA:1,2012-08-04T09:00:00Z,30.3085,-88.1395,0.0,4.66,173.2,-9999.0,'1111122,1111122,1111122' 
DISL,ioos:station:DISL:CATA:1,2012-08-04T09:30:00Z,30.3085,-88.1395,0.0,3.65,172.9,-9999.0,'1111122,1111122,1111122' 
DISL,ioos:station:DISL:CATA:1,2012-08-04T10:00:00Z,30.3085,-88.1395,0.0,3.39,160.4,-9999.0,'1111122,1111122,1111122' 
DISL,ioos:station:DISL:CATA:1,2012-08-04T10:30:00Z,30.3085,-88.1395,0.0,2.05,146.9,-9999.0,'1111122,1111122,1111122' 
DISL,ioos:station:DISL:CATA:1,2012-08-04T11:00:00Z,30.3085,-88.1395,0.0,2.26,112.5,-9999.0,'1111122,1111122,1111122' 
DISL,ioos:station:DISL:CATA:1,2012-08-04T11:30:00Z,30.3085,-88.1395,0.0,1.4,0.8,-9999.0,'1111122,1111122,1111122' 
DISL,ioos:station:DISL:CATA:1,2012-08-04T12:00:00Z,30.3085,-88.1395,0.0,2.27,340.6,-9999.0,'1111122,1111122,1111122' 
DISL,ioos:station:DISL:CATA:1,2012-08-04T12:30:00Z,30.3085,-88.1395,0.0,6.24,238.5,-9999.0,'1111122,1111122,1111122' 
DISL,ioos:station:DISL:CATA:1,2012-08-04T13:00:00Z,30.3085,-88.1395,0.0,6.51,220.9,-9999.0,'1111122,1111122,1111122' 
DISL,ioos:station:DISL:CATA:1,2012-08-04T13:30:00Z,30.3085,-88.1395,0.0,4.16,261.6,-9999.0,'1111122,1111122,1111122' 
DISL,ioos:station:DISL:CATA:1,2012-08-04T14:00:00Z,30.3085,-88.1395,0.0,3.37,281.7,-9999.0,'1111122,1111122,1111122' 
DISL,ioos:station:DISL:CATA:1,2012-08-04T14:30:00Z,30.3085,-88.1395,0.0,3.0,317.1,-9999.0,'1111122,1111122,1111122' 
DISL,ioos:station:DISL:CATA:1,2012-08-04T15:00:00Z,30.3085,-88.1395,0.0,3.62,311.5,-9999.0,'1111122,1111122,1111122' 
DISL,ioos:station:DISL:CATA:1,2012-08-04T15:30:00Z,30.3085,-88.1395,0.0,4.67,292.7,-9999.0,'1111122,1111122,1111122' 
DISL,ioos:station:DISL:CATA:1,2012-08-04T16:00:00Z,30.3085,-88.1395,0.0,2.45,286.1,-9999.0,'1111122,1111122,1111122' 
DISL,ioos:station:DISL:CATA:1,2012-08-04T16:30:00Z,30.3085,-88.1395,0.0,1.37,261.5,-9999.0,'1111122,1111122,1111122' 
DISL,ioos:station:DISL:CATA:1,2012-08-04T17:00:00Z,30.3085,-88.1395,0.0,1.36,84.8,-9999.0,'1111122,1111122,1111122' 
DISL,ioos:station:DISL:CATA:1,2012-08-04T17:30:00Z,30.3085,-88.1395,0.0,2.82,87.7,-9999.0,'1111122,1111122,1111122' 
DISL,ioos:station:DISL:CATA:1,2012-08-04T18:00:00Z,30.3085,-88.1395,0.0,1.97,106.4,-9999.0,'1111122,1111122,1111122' 
DISL,ioos:station:DISL:CATA:1,2012-08-04T18:30:00Z,30.3085,-88.1395,0.0,2.1,122.9,-9999.0,'1111122,1111122,1111122' 
DISL,ioos:station:DISL:CATA:1,2012-08-04T19:00:00Z,30.3085,-88.1395,0.0,2.18,124.0,-9999.0,'1111122,1111122,1111122' 
DISL,ioos:station:DISL:CATA:1,2012-08-04T19:30:00Z,30.3085,-88.1395,0.0,2.6,133.8,-9999.0,'1111122,1111122,1111122' 
DISL,ioos:station:DISL:CATA:1,2012-08-04T20:00:00Z,30.3085,-88.1395,0.0,3.55,133.8,-9999.0,'1111122,1111122,1111122' 
DISL,ioos:station:DISL:CATA:1,2012-08-04T20:30:00Z,30.3085,-88.1395,0.0,4.74,141.1,-9999.0,'1111122,1111122,1111122' 
DISL,ioos:station:DISL:CATA:1,2012-08-04T21:00:00Z,30.3085,-88.1395,0.0,4.58,136.2,-9999.0,'1111122,1111122,1111122' 
DISL,ioos:station:DISL:CATA:1,2012-08-04T21:30:00Z,30.3085,-88.1395,0.0,5.47,154.7,-9999.0,'1111122,1111122,1111122' 
DISL,ioos:station:DISL:CATA:1,2012-08-04T22:00:00Z,30.3085,-88.1395,0.0,5.15,144.7,-9999.0,'1111122,1111122,1111122' 
DISL,ioos:station:DISL:CATA:1,2012-08-04T22:30:00Z,30.3085,-88.1395,0.0,5.13,158.3,-9999.0,'1111122,1111122,1111122' 
DISL,ioos:station:DISL:CATA:1,2012-08-04T23:00:00Z,30.3085,-88.1395,0.0,3.99,150.6,-9999.0,'1111122,1111122,1111122' 
DISL,ioos:station:DISL:CATA:1,2012-08-04T23:30:00Z,30.3085,-88.1395,0.0,2.8,172.3,-9999.0,'1111122,1111122,1111122' 
DISL,ioos:station:DISL:CATA:1,2012-08-05T00:00:00Z,30.3085,-88.1395,0.0,2.52,165.7,-9999.0,'1111122,1111122,1111122' 
DISL,ioos:station:DISL:CATA:1,2012-08-05T00:30:00Z,30.3085,-88.1395,0.0,2.37,126.5,-9999.0,'1111122,1111122,1111122' 
DISL,ioos:station:DISL:CATA:1,2012-08-05T01:00:00Z,30.3085,-88.1395,0.0,2.55,146.3,-9999.0,'1111122,1111122,1111122' 
DISL,ioos:station:DISL:CATA:1,2012-08-05T01:30:00Z,30.3085,-88.1395,0.0,2.15,121.4,-9999.0,'1111122,1111122,1111122' 
DISL,ioos:station:DISL:CATA:1,2012-08-05T02:00:00Z,30.3085,-88.1395,0.0,2.02,108.3,-9999.0,'1111122,1111122,1111122' 
DISL,ioos:station:DISL:CATA:1,2012-08-05T02:30:00Z,30.3085,-88.1395,0.0,3.23,102.0,-9999.0,'1111122,1111122,1111122' 
DISL,ioos:station:DISL:CATA:1,2012-08-05T03:00:00Z,30.3085,-88.1395,0.0,4.01,109.2,-9999.0,'1111122,1111122,1111122' 
DISL,ioos:station:DISL:CATA:1,2012-08-05T03:30:00Z,30.3085,-88.1395,0.0,3.59,113.8,-9999.0,'1111122,1111122,1111122' 
DISL,ioos:station:DISL:CATA:1,2012-08-05T04:00:00Z,30.3085,-88.1395,0.0,4.27,119.9,-9999.0,'1111122,1111122,1111122' 
DISL,ioos:station:DISL:CATA:1,2012-08-05T04:30:00Z,30.3085,-88.1395,0.0,4.58,129.7,-9999.0,'1111122,1111122,1111122' 